Time,TemperatureF,DewpointF,PressureIn,WindDirection,WindDirectionDegrees,WindSpeedMPH,WindSpeedGustMPH,Humidity,HourlyPrecipIn,Conditions,Clouds,dailyrainin,SoftwareType,DateUTC
2013-07-16 00:01:00,79.0,70.8,30.08,WNW,292,4.0,10.0,76,0.00,,,0.00,Weather View 32 v70,2013-07-16 04:01:00,
2013-07-16 00:06:00,79.0,70.8,30.07,West,270,6.0,10.0,76,0.00,,,0.00,Weather View 32 v70,2013-07-16 04:06:00,
2013-07-16 00:11:00,79.0,70.8,30.07,WNW,292,1.0,10.0,76,0.00,,,0.00,Weather View 32 v70,2013-07-16 04:11:00,
2013-07-16 00:16:00,79.0,70.8,30.07,NW,315,4.0,10.0,76,0.00,,,0.00,Weather View 32 v70,2013-07-16 04:16:00,
2013-07-16 00:21:00,79.0,70.8,30.07,WNW,292,2.0,10.0,76,0.00,,,0.00,Weather View 32 v70,2013-07-16 04:21:00,
2013-07-16 00:26:00,79.0,70.0,30.07,West,270,3.0,10.0,74,0.00,,,0.00,Weather View 32 v70,2013-07-16 04:26:00,
2013-07-16 00:31:00,79.0,70.0,30.07,North,360,5.0,11.0,74,0.00,,,0.00,Weather View 32 v70,2013-07-16 04:31:00,
2013-07-16 00:36:00,79.0,69.6,30.07,North,360,1.0,13.0,73,0.00,,,0.00,Weather View 32 v70,2013-07-16 04:36:00,
2013-07-16 00:41:00,79.0,69.6,30.07,West,270,5.0,13.0,73,0.00,,,0.00,Weather View 32 v70,2013-07-16 04:41:00,
2013-07-16 00:46:00,79.0,69.6,30.08,West,270,1.0,13.0,73,0.00,,,0.00,Weather View 32 v70,2013-07-16 04:46:00,
2013-07-16 00:51:00,79.0,69.6,30.08,NNE,22,4.0,13.0,73,0.00,,,0.00,Weather View 32 v70,2013-07-16 04:51:00,
2013-07-16 00:56:00,79.0,70.0,30.08,North,360,1.0,13.0,74,0.00,,,0.00,Weather View 32 v70,2013-07-16 04:56:00,
2013-07-16 01:01:00,79.0,70.0,30.08,North,360,0.0,13.0,74,0.00,,,0.00,Weather View 32 v70,2013-07-16 05:01:00,
2013-07-16 01:06:00,78.0,69.8,30.09,NE,45,1.0,13.0,76,0.00,,,0.00,Weather View 32 v70,2013-07-16 05:06:00,
2013-07-16 01:12:00,78.0,69.8,30.09,NE,45,0.0,13.0,76,0.00,,,0.00,Weather View 32 v70,2013-07-16 05:12:00,
2013-07-16 01:17:00,78.0,70.2,30.09,NE,45,0.0,13.0,77,0.00,,,0.00,Weather View 32 v70,2013-07-16 05:17:00,
2013-07-16 01:22:00,77.0,70.0,30.09,WNW,292,0.0,13.0,79,0.00,,,0.00,Weather View 32 v70,2013-07-16 05:22:00,
2013-07-16 01:27:00,77.0,70.0,30.09,WNW,292,0.0,13.0,79,0.00,,,0.00,Weather View 32 v70,2013-07-16 05:27:00,
2013-07-16 01:32:00,77.0,70.7,30.09,NE,45,1.0,13.0,81,0.00,,,0.00,Weather View 32 v70,2013-07-16 05:32:00,
2013-07-16 01:37:00,77.0,70.7,30.09,North,360,7.0,10.0,81,0.00,,,0.00,Weather View 32 v70,2013-07-16 05:37:00,
2013-07-16 01:42:00,77.0,70.3,30.09,East,90,2.0,10.0,80,0.00,,,0.00,Weather View 32 v70,2013-07-16 05:42:00,
2013-07-16 01:47:00,77.0,70.3,30.09,NE,45,5.0,10.0,80,0.00,,,0.00,Weather View 32 v70,2013-07-16 05:47:00,
2013-07-16 01:52:00,77.0,70.7,30.09,NE,45,0.0,9.0,81,0.00,,,0.00,Weather View 32 v70,2013-07-16 05:52:00,
2013-07-16 01:57:00,76.0,69.7,30.09,North,360,3.0,7.0,81,0.00,,,0.00,Weather View 32 v70,2013-07-16 05:57:00,
2013-07-16 02:02:00,76.0,69.7,30.09,North,360,2.0,7.0,81,0.00,,,0.00,Weather View 32 v70,2013-07-16 06:02:00,
2013-07-16 02:07:00,76.0,70.1,30.10,North,360,2.0,7.0,82,0.00,,,0.00,Weather View 32 v70,2013-07-16 06:07:00,
2013-07-16 02:12:00,76.0,70.4,30.10,North,360,0.0,7.0,83,0.00,,,0.00,Weather View 32 v70,2013-07-16 06:12:00,
2013-07-16 02:17:00,76.0,70.4,30.10,North,360,0.0,7.0,83,0.00,,,0.00,Weather View 32 v70,2013-07-16 06:17:00,
2013-07-16 02:22:00,75.0,69.5,30.10,NNE,22,3.0,7.0,83,0.00,,,0.00,Weather View 32 v70,2013-07-16 06:22:00,
2013-07-16 02:27:00,75.0,69.5,30.10,North,360,1.0,7.0,83,0.00,,,0.00,Weather View 32 v70,2013-07-16 06:27:00,
2013-07-16 02:32:00,75.0,69.8,30.10,North,360,0.0,7.0,84,0.00,,,0.00,Weather View 32 v70,2013-07-16 06:32:00,
2013-07-16 02:37:00,75.0,69.8,30.10,North,360,0.0,7.0,84,0.00,,,0.00,Weather View 32 v70,2013-07-16 06:37:00,
2013-07-16 02:42:00,75.0,70.2,30.10,North,360,0.0,7.0,85,0.00,,,0.00,Weather View 32 v70,2013-07-16 06:42:00,
2013-07-16 02:47:00,74.0,69.2,30.10,NW,315,2.0,7.0,85,0.00,,,0.00,Weather View 32 v70,2013-07-16 06:47:00,
2013-07-16 02:52:00,74.0,69.5,30.10,NW,315,1.0,7.0,86,0.00,,,0.00,Weather View 32 v70,2013-07-16 06:52:00,
2013-07-16 02:57:00,74.0,69.5,30.11,NW,315,0.0,7.0,86,0.00,,,0.00,Weather View 32 v70,2013-07-16 06:57:00,
2013-07-16 03:02:00,74.0,69.5,30.11,NW,315,0.0,7.0,86,0.00,,,0.00,Weather View 32 v70,2013-07-16 07:02:00,
2013-07-16 03:07:00,74.0,69.5,30.10,NW,315,0.0,7.0,86,0.00,,,0.00,Weather View 32 v70,2013-07-16 07:07:00,
2013-07-16 03:12:00,74.0,69.5,30.10,NW,315,0.0,6.0,86,0.00,,,0.00,Weather View 32 v70,2013-07-16 07:12:00,
2013-07-16 03:17:00,74.0,69.5,30.10,NW,315,1.0,6.0,86,0.00,,,0.00,Weather View 32 v70,2013-07-16 07:17:00,
2013-07-16 03:22:00,74.0,69.5,30.10,NW,315,2.0,6.0,86,0.00,,,0.00,Weather View 32 v70,2013-07-16 07:22:00,
2013-07-16 03:27:00,74.0,69.5,30.10,NW,315,1.0,3.0,86,0.00,,,0.00,Weather View 32 v70,2013-07-16 07:27:00,
2013-07-16 03:32:00,74.0,69.5,30.10,NW,315,0.0,3.0,86,0.00,,,0.00,Weather View 32 v70,2013-07-16 07:32:00,
2013-07-16 03:37:00,73.0,68.5,30.10,NW,315,1.0,3.0,86,0.00,,,0.00,Weather View 32 v70,2013-07-16 07:37:00,
2013-07-16 03:43:00,73.0,68.9,30.10,NW,315,0.0,3.0,87,0.00,,,0.00,Weather View 32 v70,2013-07-16 07:43:00,
2013-07-16 03:48:00,73.0,68.9,30.10,NW,315,0.0,3.0,87,0.00,,,0.00,Weather View 32 v70,2013-07-16 07:48:00,
2013-07-16 03:53:00,73.0,68.9,30.10,NW,315,0.0,3.0,87,0.00,,,0.00,Weather View 32 v70,2013-07-16 07:53:00,
2013-07-16 03:58:00,73.0,69.6,30.11,NW,315,0.0,3.0,89,0.00,,,0.00,Weather View 32 v70,2013-07-16 07:58:00,
2013-07-16 04:03:00,73.0,69.2,30.11,NW,315,0.0,3.0,88,0.00,,,0.00,Weather View 32 v70,2013-07-16 08:03:00,
2013-07-16 04:08:00,73.0,69.2,30.11,NW,315,0.0,3.0,88,0.00,,,0.00,Weather View 32 v70,2013-07-16 08:08:00,
2013-07-16 04:13:00,72.0,68.6,30.11,NW,315,0.0,3.0,89,0.00,,,0.00,Weather View 32 v70,2013-07-16 08:13:00,
2013-07-16 04:18:00,72.0,68.6,30.11,NW,315,0.0,3.0,89,0.00,,,0.00,Weather View 32 v70,2013-07-16 08:18:00,
2013-07-16 04:23:00,72.0,68.9,30.11,NW,315,0.0,3.0,90,0.00,,,0.00,Weather View 32 v70,2013-07-16 08:23:00,
2013-07-16 04:28:00,72.0,68.6,30.11,NW,315,0.0,2.0,89,0.00,,,0.00,Weather View 32 v70,2013-07-16 08:28:00,
2013-07-16 04:33:00,72.0,68.9,30.11,NW,315,0.0,2.0,90,0.00,,,0.00,Weather View 32 v70,2013-07-16 08:33:00,
2013-07-16 04:38:00,72.0,68.6,30.12,NW,315,0.0,2.0,89,0.00,,,0.00,Weather View 32 v70,2013-07-16 08:38:00,
2013-07-16 04:43:00,72.0,68.9,30.12,NW,315,0.0,2.0,90,0.00,,,0.00,Weather View 32 v70,2013-07-16 08:43:00,
2013-07-16 04:48:00,72.0,69.2,30.12,NW,315,0.0,2.0,91,0.00,,,0.00,Weather View 32 v70,2013-07-16 08:48:00,
2013-07-16 04:53:00,72.0,69.2,30.12,NW,315,0.0,3.0,91,0.00,,,0.00,Weather View 32 v70,2013-07-16 08:53:00,
2013-07-16 04:58:00,72.0,69.2,30.12,NW,315,0.0,3.0,91,0.00,,,0.00,Weather View 32 v70,2013-07-16 08:58:00,
2013-07-16 05:03:00,72.0,69.2,30.12,WNW,292,2.0,5.0,91,0.00,,,0.00,Weather View 32 v70,2013-07-16 09:03:00,
2013-07-16 05:08:00,72.0,69.2,30.12,WNW,292,0.0,5.0,91,0.00,,,0.00,Weather View 32 v70,2013-07-16 09:08:00,
2013-07-16 05:13:00,72.0,69.2,30.12,WNW,292,0.0,5.0,91,0.00,,,0.00,Weather View 32 v70,2013-07-16 09:13:00,
2013-07-16 05:18:00,72.0,69.2,30.12,West,270,0.0,5.0,91,0.00,,,0.00,Weather View 32 v70,2013-07-16 09:18:00,
2013-07-16 05:23:00,72.0,69.2,30.12,West,270,0.0,5.0,91,0.00,,,0.00,Weather View 32 v70,2013-07-16 09:23:00,
2013-07-16 05:28:00,72.0,69.2,30.13,West,270,0.0,5.0,91,0.00,,,0.00,Weather View 32 v70,2013-07-16 09:28:00,
2013-07-16 05:33:00,72.0,69.5,30.13,West,270,0.0,5.0,92,0.00,,,0.00,Weather View 32 v70,2013-07-16 09:33:00,
2013-07-16 05:38:00,71.0,68.5,30.13,West,270,1.0,5.0,92,0.00,,,0.00,Weather View 32 v70,2013-07-16 09:38:00,
2013-07-16 05:43:00,71.0,68.5,30.13,West,270,0.0,5.0,92,0.00,,,0.00,Weather View 32 v70,2013-07-16 09:43:00,
2013-07-16 05:48:00,71.0,68.2,30.13,WNW,292,0.0,5.0,91,0.00,,,0.00,Weather View 32 v70,2013-07-16 09:48:00,
2013-07-16 05:53:00,72.0,69.5,30.13,WNW,292,0.0,5.0,92,0.00,,,0.00,Weather View 32 v70,2013-07-16 09:53:00,
2013-07-16 05:58:00,72.0,69.2,30.13,WNW,292,4.0,5.0,91,0.00,,,0.00,Weather View 32 v70,2013-07-16 09:58:00,
2013-07-16 06:03:00,72.0,69.2,30.13,West,270,1.0,5.0,91,0.00,,,0.00,Weather View 32 v70,2013-07-16 10:03:00,
2013-07-16 06:08:00,72.0,69.2,30.13,WNW,292,1.0,5.0,91,0.00,,,0.00,Weather View 32 v70,2013-07-16 10:08:00,
2013-07-16 06:14:00,72.0,69.2,30.13,WNW,292,1.0,5.0,91,0.00,,,0.00,Weather View 32 v70,2013-07-16 10:14:00,
2013-07-16 06:19:00,72.0,69.2,30.13,West,270,0.0,5.0,91,0.00,,,0.00,Weather View 32 v70,2013-07-16 10:19:00,
2013-07-16 06:24:00,72.0,69.2,30.13,West,270,3.0,5.0,91,0.00,,,0.00,Weather View 32 v70,2013-07-16 10:24:00,
2013-07-16 06:29:00,72.0,69.2,30.13,NW,315,0.0,5.0,91,0.00,,,0.00,Weather View 32 v70,2013-07-16 10:29:00,
2013-07-16 06:34:00,72.0,69.2,30.13,NW,315,0.0,5.0,91,0.00,,,0.00,Weather View 32 v70,2013-07-16 10:34:00,
2013-07-16 06:39:00,73.0,69.9,30.13,NW,315,0.0,5.0,90,0.00,,,0.00,Weather View 32 v70,2013-07-16 10:39:00,
2013-07-16 06:44:00,73.0,69.9,30.13,NW,315,0.0,5.0,90,0.00,,,0.00,Weather View 32 v70,2013-07-16 10:44:00,
2013-07-16 06:49:00,73.0,70.2,30.14,NW,315,0.0,5.0,91,0.00,,,0.00,Weather View 32 v70,2013-07-16 10:49:00,
2013-07-16 06:54:00,73.0,70.2,30.14,NW,315,0.0,5.0,91,0.00,,,0.00,Weather View 32 v70,2013-07-16 10:54:00,
2013-07-16 06:59:00,74.0,70.5,30.13,West,270,3.0,7.0,89,0.00,,,0.00,Weather View 32 v70,2013-07-16 10:59:00,
2013-07-16 07:04:00,74.0,69.9,30.13,West,270,3.0,7.0,87,0.00,,,0.00,Weather View 32 v70,2013-07-16 11:04:00,
2013-07-16 07:09:00,74.0,69.5,30.13,West,270,3.0,7.0,86,0.00,,,0.00,Weather View 32 v70,2013-07-16 11:09:00,
2013-07-16 07:14:00,75.0,69.8,30.13,NW,315,1.0,7.0,84,0.00,,,0.00,Weather View 32 v70,2013-07-16 11:14:00,
2013-07-16 07:19:00,75.0,69.1,30.13,NE,45,4.0,7.0,82,0.00,,,0.00,Weather View 32 v70,2013-07-16 11:19:00,
2013-07-16 07:24:00,75.0,68.7,30.13,West,270,3.0,8.0,81,0.00,,,0.00,Weather View 32 v70,2013-07-16 11:24:00,
2013-07-16 07:29:00,75.0,68.7,30.13,WNW,292,4.0,8.0,81,0.00,,,0.00,Weather View 32 v70,2013-07-16 11:29:00,
2013-07-16 07:34:00,76.0,69.7,30.13,WNW,292,4.0,8.0,81,0.00,,,0.00,Weather View 32 v70,2013-07-16 11:34:00,
2013-07-16 07:39:00,76.0,69.7,30.13,NW,315,2.0,8.0,81,0.00,,,0.00,Weather View 32 v70,2013-07-16 11:39:00,
2013-07-16 07:44:00,76.0,69.7,30.13,West,270,6.0,8.0,81,0.00,,,0.00,Weather View 32 v70,2013-07-16 11:44:00,
2013-07-16 07:49:00,76.0,69.4,30.13,NE,45,4.0,8.0,80,0.00,,,0.00,Weather View 32 v70,2013-07-16 11:49:00,
2013-07-16 07:54:00,76.0,69.4,30.13,NNW,337,2.0,8.0,80,0.00,,,0.00,Weather View 32 v70,2013-07-16 11:54:00,
2013-07-16 07:59:00,76.0,69.0,30.13,North,360,5.0,8.0,79,0.00,,,0.00,Weather View 32 v70,2013-07-16 11:59:00,
2013-07-16 08:04:00,77.0,70.0,30.13,NW,315,1.0,8.0,79,0.00,,,0.00,Weather View 32 v70,2013-07-16 12:04:00,
2013-07-16 08:09:00,77.0,70.0,30.13,North,360,2.0,8.0,79,0.00,,,0.00,Weather View 32 v70,2013-07-16 12:09:00,
2013-07-16 08:14:00,77.0,69.6,30.13,WSW,247,6.0,8.0,78,0.00,,,0.00,Weather View 32 v70,2013-07-16 12:14:00,
2013-07-16 08:19:00,77.0,69.2,30.13,NNE,22,0.0,8.0,77,0.00,,,0.00,Weather View 32 v70,2013-07-16 12:19:00,
2013-07-16 08:24:00,78.0,70.2,30.13,NNE,22,5.0,8.0,77,0.00,,,0.00,Weather View 32 v70,2013-07-16 12:24:00,
2013-07-16 08:29:00,78.0,70.2,30.13,North,360,1.0,12.0,77,0.00,,,0.00,Weather View 32 v70,2013-07-16 12:29:00,
2013-07-16 08:34:00,78.0,69.8,30.13,NNE,22,4.0,12.0,76,0.00,,,0.00,Weather View 32 v70,2013-07-16 12:34:00,
2013-07-16 08:39:00,78.0,69.8,30.13,SE,135,0.0,12.0,76,0.00,,,0.00,Weather View 32 v70,2013-07-16 12:39:00,
2013-07-16 08:44:00,78.0,69.4,30.13,NE,45,3.0,12.0,75,0.00,,,0.00,Weather View 32 v70,2013-07-16 12:44:00,
2013-07-16 08:49:00,78.0,69.8,30.13,West,270,2.0,12.0,76,0.00,,,0.00,Weather View 32 v70,2013-07-16 12:49:00,
2013-07-16 08:55:00,78.0,69.8,30.13,West,270,1.0,12.0,76,0.00,,,0.00,Weather View 32 v70,2013-07-16 12:55:00,
2013-07-16 09:00:00,79.0,70.0,30.12,North,360,5.0,12.0,74,0.00,,,0.00,Weather View 32 v70,2013-07-16 13:00:00,
2013-07-16 09:05:00,79.0,70.0,30.12,NNE,22,5.0,12.0,74,0.00,,,0.00,Weather View 32 v70,2013-07-16 13:05:00,
2013-07-16 09:10:00,79.0,69.2,30.11,NE,45,2.0,12.0,72,0.00,,,0.00,Weather View 32 v70,2013-07-16 13:10:00,
2013-07-16 09:15:00,80.0,70.1,30.11,NW,315,3.0,12.0,72,0.00,,,0.00,Weather View 32 v70,2013-07-16 13:15:00,
2013-07-16 09:20:00,80.0,70.1,30.11,NNW,337,4.0,12.0,72,0.00,,,0.00,Weather View 32 v70,2013-07-16 13:20:00,
2013-07-16 09:25:00,80.0,70.9,30.11,NNE,22,4.0,12.0,74,0.00,,,0.00,Weather View 32 v70,2013-07-16 13:25:00,
2013-07-16 09:30:00,80.0,70.5,30.11,West,270,0.0,11.0,73,0.00,,,0.00,Weather View 32 v70,2013-07-16 13:30:00,
2013-07-16 09:35:00,80.0,70.1,30.11,NE,45,4.0,11.0,72,0.00,,,0.00,Weather View 32 v70,2013-07-16 13:35:00,
2013-07-16 09:40:00,81.0,71.1,30.09,North,360,5.0,11.0,72,0.00,,,0.00,Weather View 32 v70,2013-07-16 13:40:00,
2013-07-16 09:45:00,81.0,70.7,30.09,NE,45,0.0,11.0,71,0.00,,,0.00,Weather View 32 v70,2013-07-16 13:45:00,
2013-07-16 09:50:00,81.0,69.8,30.09,North,360,0.0,11.0,69,0.00,,,0.00,Weather View 32 v70,2013-07-16 13:50:00,
2013-07-16 09:55:00,82.0,69.0,30.09,North,360,5.0,11.0,65,0.00,,,0.00,Weather View 32 v70,2013-07-16 13:55:00,
2013-07-16 10:00:00,82.0,69.5,30.09,West,270,7.0,10.0,66,0.00,,,0.00,Weather View 32 v70,2013-07-16 14:00:00,
2013-07-16 10:05:00,82.0,69.5,30.09,ENE,67,2.0,11.0,66,0.00,,,0.00,Weather View 32 v70,2013-07-16 14:05:00,
2013-07-16 10:10:00,82.0,68.6,30.09,NNW,337,10.0,11.0,64,0.00,,,0.00,Weather View 32 v70,2013-07-16 14:10:00,
2013-07-16 10:15:00,83.0,69.5,30.09,North,360,2.0,12.0,64,0.00,,,0.00,Weather View 32 v70,2013-07-16 14:15:00,
2013-07-16 10:20:00,83.0,69.1,30.08,North,360,4.0,12.0,63,0.00,,,0.00,Weather View 32 v70,2013-07-16 14:20:00,
2013-07-16 10:25:00,83.0,68.1,30.08,East,90,5.0,12.0,61,0.00,,,0.00,Weather View 32 v70,2013-07-16 14:25:00,
2013-07-16 10:30:00,83.0,68.6,30.08,NE,45,6.0,13.0,62,0.00,,,0.00,Weather View 32 v70,2013-07-16 14:30:00,
2013-07-16 10:35:00,84.0,71.4,30.08,NNW,337,7.0,13.0,66,0.00,,,0.00,Weather View 32 v70,2013-07-16 14:35:00,
2013-07-16 10:40:00,84.0,70.0,30.07,NE,45,4.0,13.0,63,0.00,,,0.00,Weather View 32 v70,2013-07-16 14:40:00,
2013-07-16 10:45:00,84.0,69.0,30.07,North,360,6.0,13.0,61,0.00,,,0.00,Weather View 32 v70,2013-07-16 14:45:00,
2013-07-16 10:50:00,84.0,69.0,30.07,NNE,22,1.0,13.0,61,0.00,,,0.00,Weather View 32 v70,2013-07-16 14:50:00,
2013-07-16 10:55:00,84.0,69.0,30.07,NE,45,3.0,13.0,61,0.00,,,0.00,Weather View 32 v70,2013-07-16 14:55:00,
2013-07-16 11:00:00,85.0,67.5,30.07,NE,45,6.0,13.0,56,0.00,,,0.00,Weather View 32 v70,2013-07-16 15:00:00,
2013-07-16 11:05:00,85.0,67.5,30.07,East,90,7.0,13.0,56,0.00,,,0.00,Weather View 32 v70,2013-07-16 15:05:00,
2013-07-16 11:10:00,85.0,68.0,30.07,NE,45,2.0,13.0,57,0.00,,,0.00,Weather View 32 v70,2013-07-16 15:10:00,
2013-07-16 11:15:00,86.0,67.3,30.06,NE,45,6.0,13.0,54,0.00,,,0.00,Weather View 32 v70,2013-07-16 15:15:00,
2013-07-16 11:20:00,85.0,67.0,30.06,NNW,337,2.0,13.0,55,0.00,,,0.00,Weather View 32 v70,2013-07-16 15:20:00,
2013-07-16 11:25:00,86.0,67.3,30.06,North,360,0.0,13.0,54,0.00,,,0.00,Weather View 32 v70,2013-07-16 15:25:00,
2013-07-16 11:30:00,86.0,67.3,30.06,West,270,0.0,13.0,54,0.00,,,0.00,Weather View 32 v70,2013-07-16 15:30:00,
2013-07-16 11:35:00,87.0,66.0,30.06,WNW,292,7.0,13.0,50,0.00,,,0.00,Weather View 32 v70,2013-07-16 15:35:00,
2013-07-16 11:40:00,87.0,66.6,30.06,North,360,3.0,11.0,51,0.00,,,0.00,Weather View 32 v70,2013-07-16 15:40:00,
2013-07-16 11:46:00,88.0,64.5,30.05,NE,45,3.0,11.0,46,0.00,,,0.00,Weather View 32 v70,2013-07-16 15:46:00,
2013-07-16 11:51:00,88.0,66.4,30.05,North,360,2.0,12.0,49,0.00,,,0.00,Weather View 32 v70,2013-07-16 15:51:00,
2013-07-16 11:56:00,88.0,65.2,30.05,NW,315,1.0,12.0,47,0.00,,,0.00,Weather View 32 v70,2013-07-16 15:56:00,
2013-07-16 12:01:00,88.0,65.8,30.05,NE,45,6.0,12.0,48,0.00,,,0.00,Weather View 32 v70,2013-07-16 16:01:00,
2013-07-16 12:06:00,88.0,65.2,30.05,North,360,9.0,12.0,47,0.00,,,0.00,Weather View 32 v70,2013-07-16 16:06:00,
2013-07-16 12:11:00,88.0,65.2,30.05,North,360,8.0,12.0,47,0.00,,,0.00,Weather View 32 v70,2013-07-16 16:11:00,
2013-07-16 12:16:00,88.0,66.9,30.04,NNW,337,3.0,12.0,50,0.00,,,0.00,Weather View 32 v70,2013-07-16 16:16:00,
2013-07-16 12:21:00,88.0,65.8,30.04,South,180,2.0,12.0,48,0.00,,,0.00,Weather View 32 v70,2013-07-16 16:21:00,
2013-07-16 12:26:00,88.0,65.8,30.04,North,360,6.0,12.0,48,0.00,,,0.00,Weather View 32 v70,2013-07-16 16:26:00,
2013-07-16 12:31:00,88.0,65.8,30.04,North,360,7.0,12.0,48,0.00,,,0.00,Weather View 32 v70,2013-07-16 16:31:00,
2013-07-16 12:36:00,88.0,65.8,30.04,SE,135,2.0,12.0,48,0.00,,,0.00,Weather View 32 v70,2013-07-16 16:36:00,
2013-07-16 12:41:00,89.0,67.3,30.04,WNW,292,6.0,12.0,49,0.00,,,0.00,Weather View 32 v70,2013-07-16 16:41:00,
2013-07-16 12:46:00,89.0,66.1,30.03,West,270,5.0,13.0,47,0.00,,,0.00,Weather View 32 v70,2013-07-16 16:46:00,
2013-07-16 12:51:00,90.0,67.0,30.03,WNW,292,6.0,13.0,47,0.00,,,0.00,Weather View 32 v70,2013-07-16 16:51:00,
2013-07-16 12:56:00,90.0,67.0,30.03,NE,45,2.0,13.0,47,0.00,,,0.00,Weather View 32 v70,2013-07-16 16:56:00,
2013-07-16 13:01:00,90.0,66.4,30.03,NNE,22,1.0,13.0,46,0.00,,,0.00,Weather View 32 v70,2013-07-16 17:01:00,
2013-07-16 13:06:00,90.0,66.4,30.02,NE,45,3.0,13.0,46,0.00,,,0.00,Weather View 32 v70,2013-07-16 17:06:00,
2013-07-16 13:11:00,90.0,67.0,30.02,SW,225,0.0,13.0,47,0.00,,,0.00,Weather View 32 v70,2013-07-16 17:11:00,
2013-07-16 13:16:00,90.0,67.0,30.02,North,360,4.0,13.0,47,0.00,,,0.00,Weather View 32 v70,2013-07-16 17:16:00,
2013-07-16 13:21:00,89.0,66.1,30.02,ENE,67,1.0,13.0,47,0.00,,,0.00,Weather View 32 v70,2013-07-16 17:21:00,
2013-07-16 13:26:00,89.0,66.1,30.02,NE,45,6.0,13.0,47,0.00,,,0.00,Weather View 32 v70,2013-07-16 17:26:00,
2013-07-16 13:31:00,90.0,67.6,30.02,ENE,67,0.0,13.0,48,0.00,,,0.00,Weather View 32 v70,2013-07-16 17:31:00,
2013-07-16 13:36:00,91.0,67.9,30.01,WNW,292,2.0,13.0,47,0.00,,,0.00,Weather View 32 v70,2013-07-16 17:36:00,
2013-07-16 13:41:00,90.0,68.2,30.01,NW,315,0.0,13.0,49,0.00,,,0.00,Weather View 32 v70,2013-07-16 17:41:00,
2013-07-16 13:47:00,90.0,67.0,30.02,West,270,0.0,11.0,47,0.00,,,0.00,Weather View 32 v70,2013-07-16 17:47:00,
2013-07-16 13:52:00,90.0,68.2,30.02,NNE,22,1.0,11.0,49,0.00,,,0.00,Weather View 32 v70,2013-07-16 17:52:00,
2013-07-16 13:57:00,89.0,67.3,30.02,West,270,1.0,11.0,49,0.00,,,0.00,Weather View 32 v70,2013-07-16 17:57:00,
2013-07-16 14:02:00,89.0,67.3,30.02,WSW,247,3.0,11.0,49,0.00,,,0.00,Weather View 32 v70,2013-07-16 18:02:00,
2013-07-16 14:07:00,89.0,67.3,30.02,ENE,67,0.0,11.0,49,0.00,,,0.00,Weather View 32 v70,2013-07-16 18:07:00,
2013-07-16 14:12:00,90.0,67.0,30.02,North,360,2.0,11.0,47,0.00,,,0.00,Weather View 32 v70,2013-07-16 18:12:00,
2013-07-16 14:17:00,91.0,67.9,30.01,North,360,6.0,11.0,47,0.00,,,0.00,Weather View 32 v70,2013-07-16 18:17:00,
2013-07-16 14:22:00,92.0,66.9,30.01,NNE,22,6.0,11.0,44,0.00,,,0.00,Weather View 32 v70,2013-07-16 18:22:00,
2013-07-16 14:27:00,92.0,65.5,30.00,NW,315,1.0,9.0,42,0.00,,,0.00,Weather View 32 v70,2013-07-16 18:27:00,
2013-07-16 14:32:00,93.0,66.4,30.00,NE,45,1.0,9.0,42,0.00,,,0.00,Weather View 32 v70,2013-07-16 18:32:00,
2013-07-16 14:37:00,93.0,64.3,30.00,NNE,22,5.0,9.0,39,0.00,,,0.00,Weather View 32 v70,2013-07-16 18:37:00,
2013-07-16 14:42:00,94.0,68.0,30.00,ENE,67,0.0,9.0,43,0.00,,,0.00,Weather View 32 v70,2013-07-16 18:42:00,
2013-07-16 14:47:00,94.0,65.9,29.99,North,360,4.0,10.0,40,0.00,,,0.00,Weather View 32 v70,2013-07-16 18:47:00,
2013-07-16 14:52:00,93.0,62.8,29.99,NNE,22,9.0,11.0,37,0.00,,,0.00,Weather View 32 v70,2013-07-16 18:52:00,
2013-07-16 14:57:00,94.0,65.2,29.99,WNW,292,4.0,11.0,39,0.00,,,0.00,Weather View 32 v70,2013-07-16 18:57:00,
2013-07-16 15:02:00,93.0,65.0,29.99,NNE,22,3.0,11.0,40,0.00,,,0.00,Weather View 32 v70,2013-07-16 19:02:00,
2013-07-16 15:07:00,92.0,64.1,30.00,WNW,292,5.0,11.0,40,0.00,,,0.00,Weather View 32 v70,2013-07-16 19:07:00,
2013-07-16 15:12:00,92.0,65.5,30.00,North,360,6.0,11.0,42,0.00,,,0.00,Weather View 32 v70,2013-07-16 19:12:00,
2013-07-16 15:17:00,92.0,65.5,30.00,NE,45,7.0,11.0,42,0.00,,,0.00,Weather View 32 v70,2013-07-16 19:17:00,
2013-07-16 15:22:00,92.0,64.1,30.00,NNE,22,6.0,11.0,40,0.00,,,0.00,Weather View 32 v70,2013-07-16 19:22:00,
2013-07-16 15:27:00,92.0,66.2,30.00,NE,45,3.0,15.0,43,0.00,,,0.00,Weather View 32 v70,2013-07-16 19:27:00,
2013-07-16 15:32:00,91.0,65.3,30.00,East,90,3.0,15.0,43,0.00,,,0.00,Weather View 32 v70,2013-07-16 19:32:00,
2013-07-16 15:37:00,91.0,66.0,30.00,North,360,3.0,15.0,44,0.00,,,0.00,Weather View 32 v70,2013-07-16 19:37:00,
2013-07-16 15:42:00,91.0,66.0,30.00,NNE,22,7.0,15.0,44,0.00,,,0.00,Weather View 32 v70,2013-07-16 19:42:00,
2013-07-16 15:47:00,91.0,65.3,30.00,North,360,8.0,15.0,43,0.00,,,0.00,Weather View 32 v70,2013-07-16 19:47:00,
2013-07-16 15:52:00,90.0,65.7,30.00,North,360,4.0,15.0,45,0.00,,,0.00,Weather View 32 v70,2013-07-16 19:52:00,
2013-07-16 15:57:00,91.0,65.3,30.00,NE,45,9.0,15.0,43,0.00,,,0.00,Weather View 32 v70,2013-07-16 19:57:00,
2013-07-16 16:02:00,92.0,66.9,30.00,East,90,1.0,15.0,44,0.00,,,0.00,Weather View 32 v70,2013-07-16 20:02:00,
2013-07-16 16:07:00,92.0,67.5,30.00,North,360,5.0,15.0,45,0.00,,,0.00,Weather View 32 v70,2013-07-16 20:07:00,
2013-07-16 16:12:00,93.0,65.0,30.00,North,360,4.0,15.0,40,0.00,,,0.00,Weather View 32 v70,2013-07-16 20:12:00,
2013-07-16 16:17:00,93.0,65.0,29.99,North,360,7.0,15.0,40,0.00,,,0.00,Weather View 32 v70,2013-07-16 20:17:00,
2013-07-16 16:22:00,93.0,64.3,29.99,NW,315,1.0,15.0,39,0.00,,,0.00,Weather View 32 v70,2013-07-16 20:22:00,
2013-07-16 16:27:00,93.0,63.5,29.99,North,360,6.0,15.0,38,0.00,,,0.00,Weather View 32 v70,2013-07-16 20:27:00,
2013-07-16 16:32:00,93.0,65.0,29.99,NNE,22,2.0,15.0,40,0.00,,,0.00,Weather View 32 v70,2013-07-16 20:32:00,
2013-07-16 16:37:00,93.0,65.0,29.99,WNW,292,6.0,15.0,40,0.00,,,0.00,Weather View 32 v70,2013-07-16 20:37:00,
2013-07-16 16:42:00,94.0,66.6,29.99,WNW,292,0.0,13.0,41,0.00,,,0.00,Weather View 32 v70,2013-07-16 20:42:00,
2013-07-16 16:47:00,94.0,64.4,29.99,NE,45,0.0,12.0,38,0.00,,,0.00,Weather View 32 v70,2013-07-16 20:47:00,
2013-07-16 16:52:00,94.0,62.9,29.99,NE,45,7.0,12.0,36,0.00,,,0.00,Weather View 32 v70,2013-07-16 20:52:00,
2013-07-16 16:57:00,94.0,64.4,29.98,NNE,22,3.0,12.0,38,0.00,,,0.00,Weather View 32 v70,2013-07-16 20:57:00,
2013-07-16 17:02:00,94.0,64.4,29.98,North,360,1.0,12.0,38,0.00,,,0.00,Weather View 32 v70,2013-07-16 21:02:00,
2013-07-16 17:08:00,94.0,63.7,29.98,North,360,5.0,12.0,37,0.00,,,0.00,Weather View 32 v70,2013-07-16 21:08:00,
2013-07-16 17:13:00,93.0,64.3,29.98,North,360,4.0,12.0,39,0.00,,,0.00,Weather View 32 v70,2013-07-16 21:13:00,
2013-07-16 17:18:00,93.0,65.0,29.99,NNE,22,6.0,11.0,40,0.00,,,0.00,Weather View 32 v70,2013-07-16 21:18:00,
2013-07-16 17:23:00,93.0,64.3,29.99,North,360,7.0,11.0,39,0.00,,,0.00,Weather View 32 v70,2013-07-16 21:23:00,
2013-07-16 17:28:00,93.0,65.0,29.98,NE,45,6.0,11.0,40,0.00,,,0.00,Weather View 32 v70,2013-07-16 21:28:00,
2013-07-16 17:33:00,94.0,65.9,29.98,NNW,337,3.0,11.0,40,0.00,,,0.00,Weather View 32 v70,2013-07-16 21:33:00,
2013-07-16 17:38:00,94.0,66.6,29.98,North,360,1.0,11.0,41,0.00,,,0.00,Weather View 32 v70,2013-07-16 21:38:00,
2013-07-16 17:43:00,94.0,65.9,29.98,NNE,22,4.0,11.0,40,0.00,,,0.00,Weather View 32 v70,2013-07-16 21:43:00,
2013-07-16 17:48:00,94.0,65.2,29.98,ENE,67,1.0,11.0,39,0.00,,,0.00,Weather View 32 v70,2013-07-16 21:48:00,
2013-07-16 17:53:00,94.0,64.4,29.98,NW,315,0.0,11.0,38,0.00,,,0.00,Weather View 32 v70,2013-07-16 21:53:00,
2013-07-16 17:58:00,94.0,64.4,29.98,NE,45,2.0,11.0,38,0.00,,,0.00,Weather View 32 v70,2013-07-16 21:58:00,
2013-07-16 18:03:00,94.0,65.9,29.98,West,270,1.0,11.0,40,0.00,,,0.00,Weather View 32 v70,2013-07-16 22:03:00,
2013-07-16 18:08:00,93.0,65.0,29.98,NE,45,1.0,9.0,40,0.00,,,0.00,Weather View 32 v70,2013-07-16 22:08:00,
2013-07-16 18:13:00,94.0,66.6,29.98,WNW,292,1.0,9.0,41,0.00,,,0.00,Weather View 32 v70,2013-07-16 22:13:00,
2013-07-16 18:18:00,94.0,66.6,29.98,WNW,292,1.0,9.0,41,0.00,,,0.00,Weather View 32 v70,2013-07-16 22:18:00,
2013-07-16 18:23:00,93.0,66.4,29.98,West,270,1.0,9.0,42,0.00,,,0.00,Weather View 32 v70,2013-07-16 22:23:00,
2013-07-16 18:28:00,93.0,67.1,29.98,ENE,67,1.0,9.0,43,0.00,,,0.00,Weather View 32 v70,2013-07-16 22:28:00,
2013-07-16 18:33:00,94.0,69.3,29.98,WNW,292,1.0,9.0,45,0.00,,,0.00,Weather View 32 v70,2013-07-16 22:33:00,
2013-07-16 18:38:00,94.0,68.7,29.98,NNE,22,2.0,9.0,44,0.00,,,0.00,Weather View 32 v70,2013-07-16 22:38:00,
2013-07-16 18:43:00,94.0,70.0,29.98,NNE,22,0.0,9.0,46,0.00,,,0.00,Weather View 32 v70,2013-07-16 22:43:00,
2013-07-16 18:48:00,94.0,70.0,29.98,West,270,0.0,9.0,46,0.00,,,0.00,Weather View 32 v70,2013-07-16 22:48:00,
2013-07-16 18:53:00,94.0,70.6,29.98,West,270,0.0,9.0,47,0.00,,,0.00,Weather View 32 v70,2013-07-16 22:53:00,
2013-07-16 18:58:00,94.0,70.0,29.98,West,270,0.0,8.0,46,0.00,,,0.00,Weather View 32 v70,2013-07-16 22:58:00,
2013-07-16 19:03:00,94.0,70.6,29.98,NW,315,1.0,8.0,47,0.00,,,0.00,Weather View 32 v70,2013-07-16 23:03:00,
2013-07-16 19:08:00,93.0,69.7,29.99,WNW,292,1.0,8.0,47,0.00,,,0.00,Weather View 32 v70,2013-07-16 23:08:00,
2013-07-16 19:13:00,92.0,70.0,29.99,NW,315,0.0,8.0,49,0.00,,,0.00,Weather View 32 v70,2013-07-16 23:13:00,
2013-07-16 19:18:00,91.0,69.7,29.99,NW,315,0.0,8.0,50,0.00,,,0.00,Weather View 32 v70,2013-07-16 23:18:00,
2013-07-16 19:23:00,90.0,69.4,29.99,NW,315,0.0,6.0,51,0.00,,,0.00,Weather View 32 v70,2013-07-16 23:23:00,
2013-07-16 19:28:00,90.0,71.0,30.01,NW,315,0.0,6.0,54,0.00,,,0.00,Weather View 32 v70,2013-07-16 23:28:00,
2013-07-16 19:33:00,89.0,70.7,30.01,NW,315,0.0,6.0,55,0.00,,,0.00,Weather View 32 v70,2013-07-16 23:33:00,
2013-07-16 19:38:00,88.0,70.3,30.02,NW,315,0.0,4.0,56,0.00,,,0.00,Weather View 32 v70,2013-07-16 23:38:00,
2013-07-16 19:43:00,87.0,70.9,30.02,NW,315,0.0,4.0,59,0.00,,,0.00,Weather View 32 v70,2013-07-16 23:43:00,
2013-07-16 19:49:00,86.0,70.4,30.03,NW,315,0.0,4.0,60,0.00,,,0.00,Weather View 32 v70,2013-07-16 23:49:00,
2013-07-16 19:54:00,86.0,70.9,30.03,NW,315,0.0,4.0,61,0.00,,,0.00,Weather View 32 v70,2013-07-16 23:54:00,
2013-07-16 19:59:00,85.0,70.9,30.03,NW,315,0.0,4.0,63,0.00,,,0.00,Weather View 32 v70,2013-07-16 23:59:00,
2013-07-16 20:04:00,85.0,71.9,30.03,NW,315,0.0,4.0,65,0.00,,,0.00,Weather View 32 v70,2013-07-17 00:04:00,
2013-07-16 20:09:00,84.0,70.9,30.04,North,360,3.0,3.0,65,0.00,,,0.00,Weather View 32 v70,2013-07-17 00:09:00,
2013-07-16 20:14:00,84.0,72.7,30.04,North,360,1.0,4.0,69,0.00,,,0.00,Weather View 32 v70,2013-07-17 00:14:00,
2013-07-16 20:19:00,83.0,71.7,30.05,North,360,1.0,4.0,69,0.00,,,0.00,Weather View 32 v70,2013-07-17 00:19:00,
2013-07-16 20:24:00,83.0,71.7,30.05,North,360,0.0,4.0,69,0.00,,,0.00,Weather View 32 v70,2013-07-17 00:24:00,
2013-07-16 20:29:00,83.0,72.2,30.05,North,360,0.0,4.0,70,0.00,,,0.00,Weather View 32 v70,2013-07-17 00:29:00,
2013-07-16 20:34:00,82.0,71.2,30.05,North,360,0.0,4.0,70,0.00,,,0.00,Weather View 32 v70,2013-07-17 00:34:00,
2013-07-16 20:39:00,82.0,71.6,30.06,North,360,1.0,4.0,71,0.00,,,0.00,Weather View 32 v70,2013-07-17 00:39:00,
2013-07-16 20:44:00,82.0,71.6,30.06,North,360,0.0,4.0,71,0.00,,,0.00,Weather View 32 v70,2013-07-17 00:44:00,
2013-07-16 20:49:00,82.0,72.0,30.06,North,360,0.0,4.0,72,0.00,,,0.00,Weather View 32 v70,2013-07-17 00:49:00,
2013-07-16 20:54:00,81.0,70.7,30.06,North,360,0.0,4.0,71,0.00,,,0.00,Weather View 32 v70,2013-07-17 00:54:00,
2013-07-16 20:59:00,81.0,71.1,30.07,North,360,1.0,4.0,72,0.00,,,0.00,Weather View 32 v70,2013-07-17 00:59:00,
2013-07-16 21:04:00,81.0,71.1,30.07,North,360,0.0,4.0,72,0.00,,,0.00,Weather View 32 v70,2013-07-17 01:04:00,
2013-07-16 21:09:00,81.0,71.1,30.07,North,360,0.0,4.0,72,0.00,,,0.00,Weather View 32 v70,2013-07-17 01:09:00,
2013-07-16 21:14:00,81.0,71.1,30.07,North,360,0.0,4.0,72,0.00,,,0.00,Weather View 32 v70,2013-07-17 01:14:00,
2013-07-16 21:19:00,81.0,71.5,30.07,North,360,0.0,4.0,73,0.00,,,0.00,Weather View 32 v70,2013-07-17 01:19:00,
2013-07-16 21:24:00,80.0,70.9,30.07,NW,315,0.0,4.0,74,0.00,,,0.00,Weather View 32 v70,2013-07-17 01:24:00,
2013-07-16 21:29:00,80.0,70.9,30.07,NW,315,0.0,4.0,74,0.00,,,0.00,Weather View 32 v70,2013-07-17 01:29:00,
2013-07-16 21:34:00,80.0,70.9,30.07,NW,315,0.0,4.0,74,0.00,,,0.00,Weather View 32 v70,2013-07-17 01:34:00,
2013-07-16 21:39:00,80.0,70.9,30.08,NW,315,1.0,4.0,74,0.00,,,0.00,Weather View 32 v70,2013-07-17 01:39:00,
2013-07-16 21:44:00,80.0,70.9,30.08,NW,315,0.0,4.0,74,0.00,,,0.00,Weather View 32 v70,2013-07-17 01:44:00,
2013-07-16 21:49:00,80.0,70.9,30.08,NW,315,1.0,4.0,74,0.00,,,0.00,Weather View 32 v70,2013-07-17 01:49:00,
2013-07-16 21:54:00,80.0,70.9,30.08,NW,315,0.0,4.0,74,0.00,,,0.00,Weather View 32 v70,2013-07-17 01:54:00,
2013-07-16 21:59:00,80.0,70.9,30.09,NW,315,0.0,4.0,74,0.00,,,0.00,Weather View 32 v70,2013-07-17 01:59:00,
2013-07-16 22:04:00,80.0,70.5,30.09,North,360,3.0,3.0,73,0.00,,,0.00,Weather View 32 v70,2013-07-17 02:04:00,
2013-07-16 22:09:00,80.0,70.5,30.09,North,360,0.0,3.0,73,0.00,,,0.00,Weather View 32 v70,2013-07-17 02:09:00,
2013-07-16 22:14:00,80.0,70.5,30.09,NNE,22,0.0,3.0,73,0.00,,,0.00,Weather View 32 v70,2013-07-17 02:14:00,
2013-07-16 22:20:00,79.0,70.0,30.09,NNE,22,4.0,4.0,74,0.00,,,0.00,Weather View 32 v70,2013-07-17 02:20:00,
2013-07-16 22:25:00,79.0,69.2,30.09,NW,315,0.0,5.0,72,0.00,,,0.00,Weather View 32 v70,2013-07-17 02:25:00,
2013-07-16 22:30:00,79.0,69.2,30.09,NNW,337,2.0,5.0,72,0.00,,,0.00,Weather View 32 v70,2013-07-17 02:30:00,
2013-07-16 22:35:00,79.0,69.2,30.09,North,360,0.0,5.0,72,0.00,,,0.00,Weather View 32 v70,2013-07-17 02:35:00,
2013-07-16 22:40:00,79.0,69.2,30.09,NNE,22,1.0,5.0,72,0.00,,,0.00,Weather View 32 v70,2013-07-17 02:40:00,
2013-07-16 22:45:00,79.0,69.2,30.09,NNW,337,0.0,5.0,72,0.00,,,0.00,Weather View 32 v70,2013-07-17 02:45:00,
2013-07-16 22:50:00,79.0,69.2,30.10,NNW,337,0.0,5.0,72,0.00,,,0.00,Weather View 32 v70,2013-07-17 02:50:00,
2013-07-16 22:55:00,79.0,69.2,30.10,NNW,337,0.0,5.0,72,0.00,,,0.00,Weather View 32 v70,2013-07-17 02:55:00,
2013-07-16 23:00:00,79.0,69.2,30.10,NNW,337,0.0,5.0,72,0.00,,,0.00,Weather View 32 v70,2013-07-17 03:00:00,
2013-07-16 23:05:00,79.0,69.6,30.10,NNW,337,0.0,5.0,73,0.00,,,0.00,Weather View 32 v70,2013-07-17 03:05:00,
2013-07-16 23:10:00,79.0,69.6,30.10,NNW,337,0.0,5.0,73,0.00,,,0.00,Weather View 32 v70,2013-07-17 03:10:00,
2013-07-16 23:15:00,78.0,69.0,30.10,NNW,337,0.0,5.0,74,0.00,,,0.00,Weather View 32 v70,2013-07-17 03:15:00,
2013-07-16 23:20:00,78.0,69.0,30.10,NNW,337,0.0,5.0,74,0.00,,,0.00,Weather View 32 v70,2013-07-17 03:20:00,
2013-07-16 23:25:00,78.0,69.0,30.10,NNW,337,0.0,5.0,74,0.00,,,0.00,Weather View 32 v70,2013-07-17 03:25:00,
2013-07-16 23:30:00,78.0,69.0,30.10,NNW,337,0.0,4.0,74,0.00,,,0.00,Weather View 32 v70,2013-07-17 03:30:00,
2013-07-16 23:35:00,78.0,69.8,30.10,NW,315,0.0,4.0,76,0.00,,,0.00,Weather View 32 v70,2013-07-17 03:35:00,
2013-07-16 23:40:00,78.0,70.6,30.10,NW,315,0.0,4.0,78,0.00,,,0.00,Weather View 32 v70,2013-07-17 03:40:00,
2013-07-16 23:45:00,77.0,70.7,30.10,NW,315,0.0,3.0,81,0.00,,,0.00,Weather View 32 v70,2013-07-17 03:45:00,
2013-07-16 23:50:00,77.0,70.7,30.10,NW,315,2.0,4.0,81,0.00,,,0.00,Weather View 32 v70,2013-07-17 03:50:00,
2013-07-16 23:55:00,77.0,71.1,30.10,NW,315,0.0,4.0,82,0.00,,,0.00,Weather View 32 v70,2013-07-17 03:55:00,